EN

Hourly Weather Amatitlan

Today, 17 January, Sunday

Time Temperature Precipitation Wind Pressure Humidity
00:00 +13°C° 0 mm 3 mps 631 mmHg 89%
01:00 +13°C° 0 mm 3 mps 630 mmHg 88%
02:00 +14°C° 0 mm 2 mps 630 mmHg 87%
03:00 +14°C° 0 mm 2 mps 629 mmHg 86%
04:00 +13°C° 0 mm 2 mps 629 mmHg 86%
05:00 +13°C° 0 mm 2 mps 630 mmHg 86%
06:00 +13°C° 0 mm 2 mps 630 mmHg 86%
07:00 +15°C° 0 mm 2 mps 630 mmHg 81%
08:00 +16°C° 0 mm 2 mps 631 mmHg 75%
09:00 +18°C° 0 mm 2 mps 632 mmHg 70%
10:00 +21°C° 0 mm 1 mps 633 mmHg 63%
11:00 +23°C° 0 mm 1 mps 633 mmHg 56%
12:00 +25°C° 0 mm 1 mps 634 mmHg 49%
13:00 +24°C° 0 mm 1 mps 633 mmHg 51%
14:00 +24°C° 0 mm 1 mps 632 mmHg 54%
15:00 +24°C° 0 mm 1 mps 631 mmHg 56%
16:00 +22°C° 0.1 mm 1 mps 631 mmHg 67%
17:00 +20°C° 0.1 mm 1 mps 631 mmHg 78%
18:00 +16°C° 0.1 mm 0 mps 631 mmHg 89%
19:00 +16°C° 0 mm 1 mps 631 mmHg 89%
20:00 +15°C° 0 mm 1 mps 631 mmHg 90%
21:00 +15°C° 0 mm 2 mps 631 mmHg 90%
22:00 +15°C° 0 mm 2 mps 631 mmHg 90%
23:00 +15°C° 0 mm 2 mps 631 mmHg 89%

Tomorrow, 18 January, Monday

Time Temperature Precipitation Wind Pressure Humidity
00:00 +15°C° 0 mm 2 mps 631 mmHg 89%
01:00 +15°C° 0 mm 2 mps 631 mmHg 88%
02:00 +15°C° 0 mm 2 mps 630 mmHg 87%
03:00 +15°C° 0 mm 2 mps 630 mmHg 87%
04:00 +15°C° 0 mm 2 mps 630 mmHg 86%
05:00 +15°C° 0 mm 2 mps 630 mmHg 86%
06:00 +14°C° 0 mm 2 mps 630 mmHg 86%
07:00 +16°C° 0 mm 2 mps 631 mmHg 81%
08:00 +17°C° 0 mm 2 mps 632 mmHg 76%
09:00 +18°C° 0 mm 2 mps 632 mmHg 71%
10:00 +19°C° 0 mm 2 mps 633 mmHg 65%
11:00 +21°C° 0 mm 2 mps 633 mmHg 59%
12:00 +23°C° 0 mm 2 mps 633 mmHg 53%
13:00 +24°C° 0 mm 2 mps 633 mmHg 52%
14:00 +24°C° 0 mm 2 mps 632 mmHg 51%
15:00 +24°C° 0 mm 2 mps 632 mmHg 50%
16:00 +21°C° 0 mm 2 mps 631 mmHg 61%
17:00 +19°C° 0 mm 2 mps 631 mmHg 71%
18:00 +18°C° 0 mm 1 mps 630 mmHg 81%
19:00 +16°C° 0 mm 2 mps 631 mmHg 82%
20:00 +16°C° 0 mm 2 mps 631 mmHg 84%
21:00 +16°C° 0 mm 2 mps 631 mmHg 85%
22:00 +15°C° 0 mm 2 mps 631 mmHg 85%
23:00 +15°C° 0 mm 2 mps 631 mmHg 84%

Day after tomorrow, 19 January, Tuesday

Time Temperature Precipitation Wind Pressure Humidity
00:00 +15°C° 0 mm 2 mps 631 mmHg 84%
01:00 +15°C° 0 mm 2 mps 631 mmHg 84%
02:00 +15°C° 0 mm 2 mps 630 mmHg 84%
03:00 +14°C° 0 mm 2 mps 630 mmHg 84%
04:00 +14°C° 0 mm 2 mps 630 mmHg 84%
05:00 +14°C° 0 mm 2 mps 630 mmHg 83%
06:00 +14°C° 0 mm 2 mps 630 mmHg 83%
07:00 +15°C° 0 mm 2 mps 631 mmHg 78%
08:00 +17°C° 0 mm 2 mps 632 mmHg 73%
09:00 +19°C° 0 mm 2 mps 633 mmHg 68%
10:00 +20°C° 0 mm 2 mps 633 mmHg 62%
11:00 +23°C° 0 mm 2 mps 634 mmHg 56%
12:00 +25°C° 0 mm 2 mps 634 mmHg 50%
13:00 +25°C° 0 mm 2 mps 633 mmHg 52%
14:00 +24°C° 0 mm 2 mps 633 mmHg 54%
15:00 +24°C° 0 mm 2 mps 632 mmHg 56%
16:00 +21°C° 0 mm 2 mps 632 mmHg 65%
17:00 +20°C° 0 mm 1 mps 631 mmHg 75%
18:00 +18°C° 0 mm 1 mps 631 mmHg 85%
19:00 +17°C° 0 mm 2 mps 631 mmHg 86%
20:00 +16°C° 0 mm 2 mps 631 mmHg 86%
21:00 +16°C° 0 mm 2 mps 632 mmHg 87%
22:00 +16°C° 0 mm 2 mps 632 mmHg 87%
23:00 +16°C° 0 mm 2 mps 632 mmHg 87%

20 January, Wednesday

Time Temperature Precipitation Wind Pressure Humidity
00:00 +15°C° 0 mm 2 mps 631 mmHg 87%
01:00 +15°C° 0 mm 2 mps 631 mmHg 86%
02:00 +15°C° 0 mm 2 mps 631 mmHg 84%
03:00 +14°C° 0 mm 3 mps 631 mmHg 83%
04:00 +14°C° 0 mm 3 mps 631 mmHg 83%
05:00 +14°C° 0 mm 3 mps 631 mmHg 83%
06:00 +14°C° 0 mm 3 mps 631 mmHg 82%
07:00 +16°C° 0 mm 3 mps 632 mmHg 76%
08:00 +18°C° 0 mm 3 mps 633 mmHg 71%
09:00 +19°C° 0 mm 3 mps 634 mmHg 65%
10:00 +21°C° 0 mm 3 mps 634 mmHg 60%
11:00 +22°C° 0 mm 3 mps 634 mmHg 55%
12:00 +25°C° 0 mm 3 mps 634 mmHg 50%
13:00 +25°C° 0 mm 3 mps 634 mmHg 51%
14:00 +25°C° 0 mm 3 mps 633 mmHg 52%
15:00 +24°C° 0 mm 3 mps 633 mmHg 53%
16:00 +23°C° 0 mm 2 mps 632 mmHg 62%
17:00 +20°C° 0 mm 2 mps 632 mmHg 70%
18:00 +18°C° 0 mm 2 mps 631 mmHg 78%
19:00 +17°C° 0 mm 2 mps 631 mmHg 80%
20:00 +16°C° 0 mm 2 mps 632 mmHg 81%
21:00 +16°C° 0 mm 3 mps 632 mmHg 82%
22:00 +16°C° 0 mm 3 mps 632 mmHg 82%
23:00 +14°C° 0 mm 3 mps 631 mmHg 82%

21 January, Thursday

Time Temperature Precipitation Wind Pressure Humidity
00:00 +14°C° 0 mm 3 mps 631 mmHg 82%
01:00 +14°C° 0 mm 3 mps 631 mmHg 82%
02:00 +14°C° 0 mm 3 mps 631 mmHg 83%
03:00 +14°C° 0 mm 3 mps 630 mmHg 83%
04:00 +14°C° 0 mm 3 mps 630 mmHg 83%
05:00 +14°C° 0 mm 3 mps 631 mmHg 83%
06:00 +14°C° 0 mm 3 mps 631 mmHg 82%
07:00 +16°C° 0 mm 2 mps 632 mmHg 76%
08:00 +18°C° 0 mm 2 mps 633 mmHg 70%
09:00 +20°C° 0 mm 2 mps 634 mmHg 64%
10:00 +21°C° 0 mm 2 mps 634 mmHg 58%
11:00 +24°C° 0 mm 3 mps 634 mmHg 52%
12:00 +26°C° 0 mm 3 mps 634 mmHg 46%
13:00 +26°C° 0 mm 3 mps 633 mmHg 46%
14:00 +25°C° 0 mm 3 mps 633 mmHg 46%
15:00 +25°C° 0 mm 2 mps 632 mmHg 46%
16:00 +23°C° 0 mm 2 mps 631 mmHg 57%
17:00 +21°C° 0 mm 1 mps 631 mmHg 68%
18:00 +18°C° 0 mm 1 mps 630 mmHg 78%
19:00 +18°C° 0 mm 1 mps 630 mmHg 79%
20:00 +16°C° 0 mm 1 mps 631 mmHg 80%
21:00 +15°C° 0 mm 2 mps 631 mmHg 81%
22:00 +15°C° 0 mm 2 mps 631 mmHg 82%
23:00 +15°C° 0 mm 2 mps 631 mmHg 84%

22 January, Friday

Time Temperature Precipitation Wind Pressure Humidity
00:00 +15°C° 0 mm 2 mps 630 mmHg 86%
01:00 +14°C° 0 mm 2 mps 630 mmHg 86%
02:00 +14°C° 0 mm 2 mps 630 mmHg 85%
03:00 +14°C° 0 mm 2 mps 630 mmHg 85%
04:00 +14°C° 0 mm 2 mps 630 mmHg 84%
05:00 +14°C° 0 mm 2 mps 630 mmHg 83%
06:00 +14°C° 0 mm 2 mps 630 mmHg 82%
07:00 +16°C° 0 mm 2 mps 631 mmHg 73%
08:00 +19°C° 0 mm 1 mps 632 mmHg 64%
09:00 +21°C° 0 mm 1 mps 633 mmHg 55%
10:00 +23°C° 0 mm 1 mps 633 mmHg 49%
11:00 +25°C° 0 mm 1 mps 634 mmHg 42%
12:00 +26°C° 0 mm 1 mps 634 mmHg 36%
13:00 +26°C° 0 mm 1 mps 633 mmHg 37%
14:00 +26°C° 0 mm 1 mps 632 mmHg 39%
15:00 +26°C° 0 mm 1 mps 632 mmHg 41%
16:00 +23°C° 0 mm 1 mps 631 mmHg 54%
17:00 +18°C° 0 mm 0 mps 630 mmHg 67%
18:00 +15°C° 0 mm 0 mps 630 mmHg 80%
19:00 +15°C° 0 mm 0 mps 630 mmHg 78%
20:00 +16°C° 0 mm 1 mps 630 mmHg 77%
21:00 +15°C° 0 mm 1 mps 631 mmHg 76%
22:00 +15°C° 0 mm 1 mps 630 mmHg 75%
23:00 +15°C° 0 mm 1 mps 630 mmHg 75%
Show more